TimeAST,TemperatureF,Dew PointF,Humidity,Sea Level PressureIn,VisibilityMPH,Wind Direction,Wind SpeedMPH,Gust SpeedMPH,PrecipitationIn,Events,Conditions,WindDirDegrees,DateUTC
6:00 AM,78.8,73.4,83,29.89,6.2,NE,9.2,-,N/A,,Partly Cloudy,50,2012-11-09 10:00:00
7:00 AM,80.6,73.4,79,29.89,6.2,NE,6.9,-,N/A,,Partly Cloudy,40,2012-11-09 11:00:00
8:00 AM,83,74,68,29.92,22,East,11.5,,,,Partly Cloudy,80,2012-11-09 12:00:00
8:00 AM,84.2,73.4,70,29.92,6.2,East,11.5,-,N/A,,Partly Cloudy,80,2012-11-09 12:00:00
9:00 AM,84.2,73.4,70,29.92,6.2,East,13.8,-,N/A,,Partly Cloudy,80,2012-11-09 13:00:00
10:00 AM,86.0,75.2,70,29.95,6.2,East,12.7,-,N/A,,Partly Cloudy,90,2012-11-09 14:00:00
11:00 AM,86,77,69,29.94,22,East,6.9,,,,Scattered Clouds,80,2012-11-09 15:00:00
11:00 AM,86.0,77.0,74,29.92,6.2,East,6.9,-,N/A,,Partly Cloudy,80,2012-11-09 15:00:00
12:00 PM,86.0,77.0,74,29.92,6.2,ENE,11.5,-,N/A,,Partly Cloudy,70,2012-11-09 16:00:00
1:00 PM,86.0,77.0,74,29.89,6.2,NE,11.5,-,N/A,,Scattered Clouds,50,2012-11-09 17:00:00
2:00 PM,87,76,63,29.87,22,ENE,8.1,,,,Partly Cloudy,70,2012-11-09 18:00:00
2:00 PM,86.0,77.0,74,29.86,6.2,ENE,8.1,-,N/A,,Partly Cloudy,70,2012-11-09 18:00:00
3:00 PM,84.2,75.2,74,29.86,6.2,NE,8.1,-,N/A,,Partly Cloudy,50,2012-11-09 19:00:00
4:00 PM,80.6,77.0,89,29.86,6.2,ENE,4.6,-,N/A,,Mostly Cloudy,70,2012-11-09 20:00:00
5:00 PM,80,77,86,29.87,18,ENE,6.9,,,Rain,Light Rain Showers,60,2012-11-09 21:00:00
5:00 PM,80.6,75.2,84,29.86,6.2,ENE,6.9,-,N/A,,Mostly Cloudy,60,2012-11-09 21:00:00
6:00 PM,78.8,75.2,89,29.86,6.2,NE,9.2,-,N/A,,Mostly Cloudy,40,2012-11-09 22:00:00
7:00 PM,80.6,75.2,84,29.89,6.2,NE,9.2,-,N/A,,Scattered Clouds,40,2012-11-09 23:00:00
8:00 PM,80,75,80,29.91,18,ENE,12.7,,,,Partly Cloudy,60,2012-11-10 00:00:00
8:00 PM,80.6,75.2,84,29.89,6.2,ENE,12.7,-,N/A,,Partly Cloudy,60,2012-11-10 00:00:00
9:00 PM,80.6,75.2,84,29.92,6.2,NE,10.4,-,N/A,,Partly Cloudy,40,2012-11-10 01:00:00